Miscellaneous Local Product
Issued by NWS North Platte, NE

Home | Current Version | Previous Version | Graphics & Text | Print | Product List | Glossary On
Versions: 1 2 3 4 5 6 7 8 9 10 11 12 13 14 15 16 17 18 19 20 21 22 23 24 25 26 27 28 29 30 31 32 33 34 35 36 37 38 39 40 41 42 43 44 45 46 47 48 49 50
000
AXUS43 KLBF 010610
MISLBF


WESTERN AND NORTH CENTRAL NEBRASKA HOURLY WEATHER ROUNDUP
NATIONAL WEATHER SERVICE NORTH PLATTE NE
100 AM CDT WED OCT 01 2014

***STATIONS NOT REPORTING VARIABLES SUCH AS SKY/WEATHER OR
PRESSURE ARE PROVIDED BY THE NEBRASKA DEPARTMENT OF
ROADS...RAWS...AND APRS NETWORKS...AND ARE NOT UNDER
NATIONAL WEATHER SERVICE QUALITY CONTROL***

...OBSERVATIONS IN AND NEAR THE EASTERN PANHANDLE OF NEBRASKA...

CITY           SKY/WX    TMP DP  RH WIND       PRES   REMARKS
PINE RIDGE     CLOUDY    52  48  86 SW5       29.74S
CHADRON        MOCLDY    50  47  89 SW8       29.75S
ALLIANCE       CLOUDY    50  45  83 SW8       29.77S
SIDNEY         MOCLDY    57  41  55 W9        29.83S
WHITECLAY        N/A     49  46  88 E3          N/A
RUSHVILLE        N/A     54  45  71 NW10        N/A
LISCO            N/A     53  44  70 W3          N/A
BIG SPRINGS      N/A     56  51  85 CALM        N/A
$$

...OBSERVATIONS IN NORTH CENTRAL NEBRASKA...

CITY           SKY/WX    TMP DP  RH WIND       PRES   REMARKS
VALENTINE      CLOUDY    50  46  86 SW6       29.71S
THEDFORD       CLOUDY    58  49  71 CALM      29.74S
AINSWORTH      CLOUDY    61  45  54 SW7       29.71S
O`NEILL        MOCLDY    62  62  99 SE10G17   29.73S FOG
ORD            CLOUDY    61  60  97 SE10      29.72S FOG
BROKEN BOW     MOCLDY    54  51  90 CALM      29.73S
SPRINGVIEW       N/A     55  49  80 CALM        N/A
ROSE             N/A     67  52  58 E8          N/A
NEWPORT          N/A     62  52  69 S7          N/A
SARGENT          N/A     56  54  92 CALM        N/A
COMSTOCK         N/A     64  64  99 S13         N/A
CHAMBERS         N/A     61  60  96 S3          N/A
EWING            N/A     62  60  95 S7          N/A
$$

...OBSERVATIONS IN SOUTHWEST NEBRASKA AND FAR NORTHEAST COLORADO...

CITY           SKY/WX    TMP DP  RH WIND       PRES   REMARKS
WRAY           MOCLDY    55  48  79 W3        29.80S
HOLYOKE        FAIR      55  50  82 CALM      29.80F
IMPERIAL       MOCLDY    57  46  66 W5        29.78R
OGALLALA       CLOUDY    57  52  84 CALM      29.77F
NORTH PLATTE   CLOUDY    56  50  80 NW5       29.75S
MCCOOK         CLOUDY    59  53  80 E5        29.75S
LEXINGTON      MOCLDY    58  56  95 SE7       29.74S FOG
PAXTON           N/A     58  51  77 CALM        N/A
SUTHERLAND       N/A     55  48  79 W5          N/A
BRADY            N/A     57  49  75 CALM        N/A
GOTHENBURG       N/A     60  48  64 CALM        N/A
CALLAWAY         N/A     54  50  86 S5          N/A
$$

...SOME WEATHER OBSERVATIONS FROM AROUND THE REGION...

CITY           SKY/WX    TMP DP  RH WIND       PRES   REMARKS
DENVER         MOCLDY    54  37  52 W12       29.87F
LARAMIE        PTCLDY    41  33  73 SW6       29.93S
CHEYENNE       CLOUDY    48  37  65 W9        29.89S
SCOTTSBLUFF    CLOUDY    57  45  64 W9        29.79S
RAPID CITY     MOCLDY    49  44  83 CALM      29.72R
PIERRE         MOCLDY    57  49  74 W8        29.63F
WINNER         FAIR      58  46  64 N6        29.69S
SIOUX FALLS    CLOUDY    62  59  90 S10       29.75F
OMAHA          TSTM      65  61  87 SE17      29.77R FOG
GRAND ISLAND   CLOUDY    63  62  97 SE8       29.73F FOG
KANSAS CITY    CLOUDY    68  63  84 SE12      29.77F
WICHITA        CLOUDY    74  63  68 S21G28    29.70S
HAYS           CLEAR     61  55  82 NW5       29.70S
LIBERAL        PTCLDY    63  43  48 E6        29.76S
GOODLAND       MOCLDY    54  47  77 W7        29.80S
$$



USA.gov is the U.S. government's official web portal to all federal, state and local government web resources and services.